RH
97 96 96 96 95 91 80 42 35 49 51 30 32 36 26 42 26 27 27 26 26 28 29 31 34 34 34 32 29 31 32 34 40 22 25 28 27 30 30 47 37 43 55 40
98 96 96 96 96 92 36 30 37 44 50 58 63 35 33 27 28 27 27 33 29 30 32 42 35 36 39 32 33 38 34 41 39 27 31 31 32 28 30 34 49 48 74 44
96 97 98 97 96 92 51 31 60 38 37 32 30 34 32 36 33 33 29 32 29 33 35 32 41 40 41 41 38 70 52 34 35 40 29 23 29 25 23 30 55 52 45 32
98 97 97 98 96 93 52 32 44 40 52 43 32 31 29 32 34 31 28 32 30 33 43 37 40 36 42 40 62 42 39 47 35 32 25 23 25 28 27 29 31 50 42 32
97 98 98 96 95 92 39 34 41 38 40 34 34 47 32 29 32 29 32 32 30 28 42 28 37 30 30 32 38 39 38 54 58 51 30 26 34 27 27 27 31 30 31 33
98 98 97 94 96 89 36 41 42 37 63 42 43 39 32 29 33 39 26 29 30 46 33 35 37 37 34 33 37 44 50 61 58 69 47 58 84 43 30 28 29 34 46 34
99 99 96 95 95 90 40 44 36 66 67 49 37 33 30 32 32 39 32 29 48 44 35 35 35 37 38 38 42 42 72 64 84 95 89 91 39 26 26 31 29 27 27 28
99 98 95 95 96 93 44 42 40 61 100 42 40 36 34 39 39 39 42 47 42 38 39 60 81 67 91 71 42 44 45 70 92 99 65 46 37 35 36 42 43 29 34 36
97 97 96 94 95 94 50 57 55 48 86 74 33 40 40 51 54 56 59 51 45 47 69 79 98 68 39 44 49 47 54 68 82 90 98 90 45 31 33 35 56 41 44 47
96 96 96 96 98 94 57 60 73 40 79 45 38 47 48 36 43 50 56 57 66 50 94 99 98 60 39 44 82 91 94 95 98 90 96 63 34 35 37 66 69 52 52 68
96 96 97 99 98 94 65 63 68 56 64 53 47 42 46 45 40 72 57 60 67 81 100 100 90 100 61 56 37 62 74 93 98 90 97 92 34 37 75 60 59 62 66 77
96 96 97 99 97 93 90 48 58 57 52 60 61 58 56 52 44 38 58 48 56 56 77 94 98 100 99 88 69 30 53 51 59 57 59 36 36 42 47 52 59 64 71 70
97 96 97 96 94 93 84 53 60 50 93 60 55 56 56 48 54 48 57 64 41 51 54 82 98 100 78 100 76 73 41 32 62 65 41 38 45 49 62 57 63 67 69 50
98 98 99 97 95 95 86 55 61 54 77 100 73 52 56 53 52 52 52 50 59 56 60 100 100 100 51 94 61 62 48 47 57 63 45 49 59 71 76 68 69 59 42 39
99 99 99 98 93 93 69 63 65 62 62 93 83 60 56 51 53 55 53 54 59 74 100 100 98 76 81 81 84 76 45 50 70 82 59 81 83 81 79 68 49 42 37 32
99 99 97 99 96 94 53 58 60 62 59 95 100 63 62 55 54 58 59 56 68 62 79 95 71 54 67 100 100 51 39 38 39 55 56 65 82 76 55 48 39 31 33 30
100 99 100 100 98 72 60 58 72 85 59 100 100 88 69 60 60 62 62 75 81 73 80 98 90 77 72 100 99 51 48 47 47 51 64 81 65 56 42 34 32 33 25 21
99 99 100 98 98 95 82 76 91 83 66 87 100 98 95 65 94 98 66 93 90 87 87 98 98 86 97 100 69 56 49 51 50 55 58 53 43 37 33 29 25 24 25 27
99 99 99 95 97 99 88 94 88 72 74 94 100 100 100 69 88 92 93 85 100 90 100 99 97 100 99 75 65 58 55 53 52 42 38 35 36 32 26 24 27 30 31 30
99 98 100 100 100 98 97 96 99 98 96 94 100 80 99 69 98 100 99 100 100 100 97 81 100 98 78 56 54 52 54 51 47 50 48 41 36 29 29 29 30 34 37 45
99 100 100 100 98 94 96 100 100 100 100 100 96 98 98 81 98 100 100 100 100 100 93 96 96 82 65 58 58 50 46 41 37 34 29 26 28 30 35 41 47 52 52 57
99 98 97 97 96 100 100 100 100 100 99 100 100 99 94 100 90 99 100 100 99 99 68 98 88 59 53 53 48 46 42 37 30 27 27 28 29 35 47 53 53 54 69 92
95 96 100 99 100 100 100 100 100 100 100 99 100 100 100 100 97 100 100 100 100 74 95 80 58 53 45 44 45 42 36 37 41 28 27 31 38 49 65 74 72 96 75 69
98 100 100 100 100 100 100 100 100 100 100 100 100 100 100 100 100 100 100 98 81 97 92 90 58 51 46 45 39 38 38 82 56 44 46 54 82 83 98 100 100 100 92 84
96 99 100 100 100 100 100 100 100 100 98 99 100 99 93 100 100 100 99 100 96 78 77 70 57 56 50 47 48 38 47 95 78 46 61 100 100 95 83 85 88 85 100 100
78 96 100 100 100 100 100 100 100 97 100 99 96 100 100 100 100 99 100 96 80 79 80 67 55 54 52 53 48 46 43 48 46 47 50 65 94 100 76 80 92 100 100 100
99 98 100 100 100 100 100 100 100 94 100 100 97 100 100 94 96 93 73 90 84 77 70 53 51 52 49 43 50 80 65 58 54 53 54 60 72 92 95 94 67 67 80 100
Wind_Speed
10 11 12 11 7 3 1 3 5 3 3 7 4 5 6 1 8 4 3 2 4 6 5 3 4 5 6 2 3 4 6 2 3 5 4 4 5 4 6 3 4 3 4 8
8 10 12 12 8 4 3 3 5 3 4 5 3 5 6 3 8 3 4 3 1 4 6 4 6 6 4 3 4 7 6 1 4 5 8 5 5 1 2 2 3 10 7 6
8 9 11 12 10 6 4 3 3 4 5 4 9 10 10 7 3 4 3 6 6 8 6 4 7 8 4 2 5 3 3 2 4 6 10 9 8 10 9 9 8 10 11 16
7 10 11 12 10 6 4 2 2 2 7 6 9 9 10 11 6 3 6 4 4 8 4 7 5 7 7 4 4 2 4 3 5 9 12 12 12 13 13 14 14 14 16 17
7 10 11 12 11 5 3 2 3 3 2 6 10 4 10 12 5 8 8 7 8 6 7 3 7 5 3 2 4 1 2 0 4 4 6 9 13 16 17 16 10 14 13 16
7 9 11 11 10 4 1 2 1 3 2 7 8 6 9 9 9 3 2 10 8 9 9 11 10 8 6 4 1 4 2 1 3 4 11 13 6 3 1 4 6 8 11 11
6 9 10 11 11 8 3 2 1 3 4 7 8 7 8 11 5 8 9 6 7 6 9 9 7 8 5 0 2 3 4 2 2 4 6 3 5 6 12 10 8 8 11 11
5 7 10 11 11 11 2 2 2 4 3 4 5 9 12 10 11 12 11 6 6 8 1 2 3 1 3 0 3 3 3 4 2 2 5 13 10 4 4 9 13 13 7 7
5 7 9 10 11 10 2 4 3 3 7 5 9 10 13 11 7 6 5 5 4 2 2 2 2 3 1 5 6 4 4 1 4 3 4 4 4 1 0 5 12 9 9 16
4 7 8 10 11 11 3 4 4 2 4 3 4 6 9 4 8 5 6 6 3 3 3 2 3 3 2 4 3 5 3 1 5 6 6 8 9 3 4 6 4 11 13 10
4 6 8 9 12 10 5 4 5 4 3 6 0 1 6 4 6 5 8 6 2 2 3 4 4 1 4 2 3 6 8 6 4 4 4 7 3 5 1 8 11 8 8 6
3 4 7 8 10 11 7 3 2 4 3 5 4 5 6 7 9 2 8 2 6 6 3 3 2 3 0 0 3 7 5 7 4 9 6 9 7 10 7 5 7 7 4 4
3 2 5 7 9 10 8 3 3 2 3 3 4 4 5 3 7 5 4 1 3 5 5 5 3 3 6 5 6 8 9 12 6 8 8 12 8 8 9 8 5 1 5 8
3 2 4 6 8 8 7 2 3 2 4 5 4 0 3 4 4 2 4 6 6 5 4 3 3 3 8 5 7 8 7 4 9 13 16 12 4 8 6 4 3 6 3 6
6 4 2 2 5 7 3 4 4 4 3 3 2 2 2 3 1 3 2 6 5 3 3 2 4 3 1 1 2 9 10 14 9 8 6 3 2 5 2 5 4 4 6 8
8 6 5 2 4 8 3 2 3 3 4 4 2 3 1 0 2 4 6 6 1 2 4 3 4 3 4 4 4 6 9 8 8 7 5 3 8 5 6 3 3 5 9 12
8 7 6 2 4 4 3 3 5 6 1 2 2 3 2 1 2 2 3 3 1 4 2 3 4 5 4 2 5 7 8 6 4 2 5 4 3 2 3 2 6 7 11 13
10 8 6 7 9 7 2 4 3 6 3 2 3 2 1 3 2 3 1 2 1 3 1 1 2 2 1 6 7 7 6 5 5 5 2 2 5 4 1 5 8 11 12 13
11 11 10 3 1 2 2 3 1 3 2 2 2 5 4 5 2 2 2 1 2 2 1 2 3 3 6 7 10 7 9 8 7 7 5 4 0 3 6 9 11 11 12 13
16 3 3 2 2 6 7 3 2 1 1 1 3 4 4 5 3 2 3 1 1 3 3 3 3 3 4 4 4 5 8 8 9 6 4 1 4 6 8 9 10 11 12 12
2 3 2 2 2 1 3 2 3 2 2 3 1 3 5 2 3 4 1 3 3 3 3 3 3 4 8 10 9 10 11 9 5 3 2 3 5 7 8 9 10 10 11 12
5 5 3 2 1 2 5 3 2 4 5 3 3 1 2 2 1 3 2 3 3 3 5 3 4 4 10 12 12 10 8 7 4 1 3 5 7 8 8 9 10 10 10 8
4 6 3 2 1 2 5 8 3 3 3 4 3 3 2 2 2 2 3 5 2 1 3 4 3 7 9 11 10 9 7 5 2 5 7 8 8 7 7 8 9 7 10 10
3 2 3 2 2 1 2 4 4 3 3 5 4 3 2 2 2 1 3 3 3 4 4 5 1 6 9 9 7 8 6 5 3 7 8 7 6 7 5 6 8 6 9 11
3 1 3 3 2 3 2 3 2 3 2 2 4 3 2 2 3 1 3 4 4 4 2 4 3 7 7 7 5 5 2 2 5 8 7 4 6 8 10 8 7 8 7 9
3 2 3 2 2 2 2 3 3 3 2 2 3 2 1 2 1 3 3 2 4 2 2 1 6 6 5 4 2 4 6 7 9 9 10 8 6 7 11 9 8 8 8 8
1 3 2 2 2 3 2 1 2 1 1 2 2 0 3 2 1 2 3 3 3 2 2 3 5 6 5 3 4 4 6 9 10 10 10 10 8 6 7 10 11 7 7 7
Wind_Direction
12 3 358 360 352 8 190 198 198 90 222 193 212 197 156 84 148 179 119 73 119 154 147 137 108 136 60 86 349 30 39 358 282 14 70 348 326 338 316 302 307 248 313 290
12 1 356 353 348 353 195 219 104 125 242 157 196 154 131 139 174 136 167 135 166 178 142 123 121 118 87 66 10 22 16 92 289 184 162 171 278 221 332 351 298 255 254 266
6 2 352 348 341 336 274 192 120 143 218 307 190 180 169 138 56 108 96 114 145 137 142 115 154 128 130 93 52 22 307 323 302 314 322 323 289 269 262 254 256 267 274 289
3 2 352 342 333 326 273 278 125 70 177 218 196 181 178 160 149 134 175 161 189 152 139 139 143 133 139 157 125 194 315 271 328 299 300 304 301 289 278 266 259 254 278 286
9 357 349 335 335 334 244 191 163 173 103 160 170 145 194 181 133 163 161 184 151 159 153 211 169 154 207 160 162 189 61 235 334 276 293 311 305 289 276 264 282 279 294 298
16 356 346 341 341 314 139 101 79 178 206 179 172 187 170 172 140 40 242 144 142 94 72 66 52 46 51 73 192 187 313 295 344 276 337 322 276 222 73 302 262 266 284 288
17 2 349 354 352 339 353 45 209 120 152 189 189 183 170 157 168 136 110 129 100 88 118 101 67 66 48 179 88 302 142 139 63 292 305 299 61 258 298 290 290 283 298 309
18 13 2 3 3 344 71 111 263 122 117 169 164 162 137 127 126 134 110 66 80 150 83 94 30 111 57 292 44 119 241 156 132 266 281 294 297 74 3 328 302 296 322 359
41 20 11 9 13 352 71 63 313 81 126 217 156 149 164 149 134 137 97 99 113 169 83 101 160 216 274 150 139 68 74 59 238 170 259 267 22 46 307 304 279 47 348 328
59 25 14 16 12 354 340 71 352 282 104 123 185 157 179 163 183 128 138 152 139 263 102 132 195 215 328 209 193 190 115 198 217 221 252 267 290 53 296 283 2 324 352 6
63 30 21 22 12 352 330 75 18 328 68 119 121 117 147 160 187 160 122 143 155 123 125 170 207 215 203 222 263 177 182 180 198 215 245 266 178 217 152 303 309 13 34 41
99 33 25 21 8 1 341 104 55 342 46 74 40 64 30 9 13 132 180 4 148 171 135 175 162 188 61 346 247 188 253 213 247 201 232 308 273 280 343 344 13 7 8 294
148 66 24 15 11 360 344 87 20 82 86 115 181 141 54 59 23 349 176 225 155 177 9 140 169 195 175 181 231 268 280 262 217 283 266 295 324 351 57 42 24 337 242 283
169 107 37 12 12 359 338 65 22 9 71 115 132 75 135 345 344 5 5 88 87 95 131 118 148 189 204 205 261 276 261 284 243 259 290 335 57 63 68 326 288 255 291 313
173 162 142 351 1 348 51 63 46 24 316 131 128 131 86 3 330 194 154 159 161 141 122 134 200 228 166 139 279 256 250 257 255 267 331 186 44 84 89 257 257 347 320 320
180 176 178 215 335 331 219 181 106 32 336 104 142 82 131 36 200 176 186 197 78 240 152 201 246 166 214 188 227 271 287 271 294 314 349 29 124 160 219 275 335 330 326 318
167 177 189 181 350 301 302 7 36 347 313 85 110 206 85 325 145 95 178 46 124 225 205 208 216 204 222 186 227 249 272 276 306 347 119 115 170 205 187 277 325 321 314 318
169 158 123 108 96 106 198 62 22 311 97 55 158 183 232 216 133 162 332 128 258 185 294 55 223 102 210 244 241 229 206 144 131 110 155 213 158 186 269 339 327 324 321 326
158 136 142 105 106 160 121 119 262 41 335 207 166 176 197 160 88 82 115 216 190 96 234 213 201 175 219 225 207 203 173 179 162 147 149 140 12 339 334 330 322 318 320 326
133 117 180 203 213 121 144 19 97 358 330 169 201 153 166 190 167 146 130 174 241 211 206 154 207 248 290 219 204 179 173 158 156 171 183 237 316 320 316 313 321 323 327 321
74 87 52 356 56 87 37 138 177 164 224 189 178 183 149 211 158 159 293 168 160 227 148 243 228 240 203 166 152 143 147 159 143 90 82 315 313 306 305 316 325 315 315 311
88 92 78 60 40 61 146 188 135 208 194 148 143 122 92 93 43 108 172 185 188 218 142 222 244 209 137 162 161 152 158 153 143 145 296 305 302 314 316 310 307 308 313 295
49 46 56 39 41 195 195 181 198 180 154 163 152 112 104 134 83 112 171 195 180 228 189 236 250 118 153 162 158 166 147 101 358 314 314 314 308 322 300 301 294 286 293 297
78 89 104 322 155 354 16 339 71 50 81 108 108 93 108 179 107 140 189 74 197 214 234 221 157 156 162 165 159 168 161 111 310 305 299 296 287 282 275 250 263 272 285 299
77 35 67 52 36 23 21 2 62 25 56 124 114 90 65 70 101 27 114 174 219 227 250 52 107 139 140 128 162 190 258 238 268 290 289 251 261 269 279 279 269 276 279 287
107 95 132 93 89 38 22 39 51 15 40 41 24 73 141 95 61 186 211 236 229 89 66 136 121 129 134 162 171 277 292 294 290 287 282 275 252 256 281 298 289 271 259 267
108 102 46 68 57 95 85 75 96 91 63 59 55 148 57 93 215 240 224 248 27 35 147 117 118 158 172 218 268 259 274 282 283 278 275 272 277 279 277 278 283 279 275 252